Theta_e
302 302 302 302 301 301 301 301 302 302 303 303 303 303 302 302 301 301 300 300 301 301 301 301 301 300 300 300 299 299 298 298 299 299 299 300 299 299 298 297 296 296
301 301 301 301 301 301 300 300 300 300 301 301 302 302 302 302 302 301 301 300 300 300 301 300 300 300 300 300 299 299 298 298 298 298 298 298 298 298 298 297 296 296
299 300 300 300 300 300 300 299 298 299 299 299 300 300 301 301 301 301 301 301 301 300 300 300 300 300 300 300 299 299 298 298 298 297 297 297 297 297 297 297 297 296
297 298 298 299 299 299 299 298 298 298 297 297 298 298 299 299 300 300 300 301 301 301 301 300 300 300 299 299 299 299 299 298 298 297 297 297 297 297 297 296 296 296
293 294 294 295 296 297 297 298 298 298 297 297 296 296 297 297 298 298 299 299 300 301 301 301 301 300 299 299 299 299 299 298 298 297 297 297 297 297 296 296 296 296
290 291 291 291 292 293 294 295 296 296 296 296 296 296 296 296 296 297 297 297 298 299 300 300 301 301 300 300 299 299 299 298 298 297 296 296 296 297 297 296 296 296
289 289 289 289 289 289 290 290 291 292 293 294 294 295 295 295 295 295 296 296 296 297 297 298 299 300 301 301 300 300 299 298 298 297 297 296 296 296 296 296 296 296
288 288 288 288 288 288 288 288 288 288 289 289 290 291 291 292 293 293 294 294 295 295 296 296 297 298 299 299 300 300 299 299 298 297 297 296 296 296 296 296 296 296
287 287 287 287 287 287 287 287 287 287 287 287 287 287 288 288 289 289 290 291 292 293 294 294 295 296 296 297 297 298 298 298 297 296 296 296 296 296 296 296 295 295
287 287 287 287 287 287 287 287 287 287 287 287 286 287 287 287 287 287 288 288 289 289 290 291 292 293 294 295 295 296 297 297 297 296 296 296 296 296 296 296 296 295
287 287 287 287 287 287 287 287 287 287 287 287 287 286 286 286 286 287 287 287 287 287 287 288 288 289 291 292 293 294 295 296 296 296 296 296 295 295 295 295 296 295
288 287 287 287 287 287 287 287 287 287 287 287 287 287 287 286 286 286 286 286 286 286 287 287 287 287 287 288 290 291 292 293 294 295 295 296 296 296 295 295 295 295
287 287 287 287 287 287 287 287 287 287 287 287 287 287 287 286 286 286 286 286 286 286 286 286 286 286 286 286 287 287 288 290 291 292 293 294 295 295 296 295 295 294
287 287 287 287 287 287 287 287 287 287 287 287 287 287 287 287 286 286 286 286 286 286 286 286 286 286 286 286 286 286 286 287 288 289 290 291 292 293 294 295 295 295
288 288 287 287 287 287 287 287 287 287 287 287 287 287 287 287 287 287 286 286 286 286 286 286 286 286 286 286 285 286 286 286 286 286 287 288 289 290 291 292 293 294
288 288 288 288 288 288 288 287 287 287 287 287 287 287 287 287 287 287 286 286 286 286 286 286 286 286 286 286 285 285 285 285 286 286 286 286 286 287 288 289 290 292
287 287 287 287 287 287 287 287 287 287 287 287 287 287 287 287 287 287 287 287 286 286 286 286 286 286 286 286 286 286 285 285 285 285 285 286 286 286 286 287 287 288
286 286 286 286 286 286 286 286 286 286 286 287 287 287 287 287 287 287 287 287 287 286 286 286 286 286 286 286 286 286 286 285 285 285 285 285 285 285 286 286 286 286
285 285 285 285 285 284 284 284 284 284 285 285 285 285 285 285 286 286 286 286 286 286 286 286 286 286 286 286 286 286 286 285 285 285 285 285 285 285 285 285 286 286
284 283 283 283 283 282 282 282 282 282 282 282 282 283 283 283 284 285 285 285 286 286 286 286 286 286 286 286 285 285 285 285 285 285 285 285 285 285 285 285 285 285
282 282 282 281 281 281 281 280 280 280 280 280 280 280 281 281 282 282 283 284 284 285 285 285 286 286 286 285 285 285 285 285 285 285 285 285 285 285 285 285 285 285
281 280 280 280 280 279 279 279 279 279 279 279 279 279 279 279 279 280 281 281 282 283 283 284 285 285 285 285 285 284 284 284 284 284 285 285 285 285 285 285 285 285
280 279 279 279 279 278 278 278 278 278 278 278 277 277 277 278 278 278 278 279 280 281 282 282 283 284 284 284 284 284 283 283 282 283 284 284 284 285 285 285 285 285
279 279 278 278 278 278 277 277 277 277 277 277 276 276 276 276 276 276 276 277 277 278 279 280 281 283 284 284 284 284 283 282 281 281 282 283 284 284 284 285 285 285
278 278 278 277 277 277 276 276 276 276 275 275 274 274 274 274 274 274 274 274 275 275 276 276 278 280 282 283 283 283 283 282 280 279 280 281 282 283 284 284 284 285
278 277 277 276 276 275 275 275 274 273 273 272 272 272 271 271 271 271 271 272 272 272 273 273 274 276 277 279 279 280 281 280 279 278 278 279 280 281 282 283 283 284
Wind_Speed
20 20 21 21 21 20 19 19 18 18 18 19 19 18 17 16 16 16 18 19 20 20 18 17 17 16 16 16 16 18 20 23 26 30 34 39 41 42 44 46 48 49
18 18 19 19 20 20 20 20 19 19 18 18 19 19 19 18 17 16 16 17 18 18 18 18 18 18 18 17 17 18 19 21 23 26 30 35 38 40 42 43 46 48
16 16 16 17 18 19 20 20 20 19 19 19 19 19 19 20 19 18 17 17 17 17 17 17 17 17 18 18 19 19 19 20 21 23 26 31 34 37 39 41 43 46
13 13 14 14 15 16 17 18 19 19 19 19 19 19 19 19 20 20 19 19 18 18 17 16 16 16 17 18 19 20 20 21 21 21 24 28 30 33 36 38 41 44
13 13 13 12 12 13 14 15 17 18 19 19 19 19 20 20 20 20 20 20 20 19 19 18 17 16 16 16 18 19 21 21 21 21 23 25 26 29 31 34 38 41
16 16 15 15 14 13 13 13 14 16 17 19 20 21 21 21 21 21 21 22 21 21 20 19 19 18 17 17 17 18 19 21 22 22 24 25 25 26 27 30 35 38
19 18 18 18 18 17 16 15 15 15 15 17 18 19 21 21 22 22 22 23 23 23 22 21 21 20 19 19 18 18 18 19 21 22 23 25 25 25 26 27 30 34
22 22 21 21 20 19 19 18 18 17 17 17 17 18 19 20 21 21 22 23 23 24 24 23 23 22 21 20 19 19 19 19 20 21 23 24 25 26 26 26 28 31
24 25 25 25 25 23 22 21 20 19 19 19 19 19 20 21 22 22 23 23 23 24 24 24 24 23 22 21 20 20 19 19 20 21 23 24 25 26 26 27 28 31
25 26 27 28 28 28 27 26 25 23 23 22 22 22 21 21 22 23 24 25 25 25 25 24 24 24 24 23 23 22 22 21 21 21 23 24 25 26 26 27 29 31
24 25 26 28 29 30 31 31 30 30 29 28 27 26 25 24 24 23 24 25 25 26 26 26 25 25 24 24 24 24 24 23 22 22 23 24 25 26 26 27 29 31
25 26 27 28 29 31 32 32 33 33 34 34 33 31 29 28 27 26 25 24 24 25 26 27 27 26 25 24 24 24 25 25 24 24 23 23 24 25 26 27 29 31
27 28 29 30 31 32 33 34 35 35 36 36 37 37 36 34 32 31 29 28 27 26 26 26 27 27 26 25 24 24 24 25 26 26 26 26 25 25 25 27 29 31
29 30 31 32 33 34 35 36 37 38 38 39 39 40 40 40 39 38 36 34 32 30 29 28 28 28 27 27 27 26 25 26 26 27 28 29 29 28 27 27 28 29
32 33 34 35 36 37 37 38 39 40 41 42 43 43 43 43 43 43 43 41 39 37 35 34 32 31 29 29 29 28 28 28 28 29 29 30 31 31 31 30 30 30
36 37 39 40 40 40 40 40 41 42 43 44 45 45 46 46 47 47 47 47 46 44 43 41 39 37 34 32 31 30 30 30 30 31 31 31 32 33 33 33 33 32
40 41 43 44 45 45 45 44 44 44 44 45 45 46 47 48 49 50 50 51 51 50 49 48 46 43 41 39 37 34 33 32 33 33 33 34 34 35 35 35 34 34
41 43 45 47 48 48 48 48 48 48 47 47 47 47 47 47 49 50 51 52 53 54 54 53 51 49 47 46 44 41 38 37 36 35 35 36 36 37 37 37 36 36
42 43 45 47 48 48 48 48 49 50 50 50 50 49 49 49 49 50 51 52 53 55 56 56 56 54 52 50 49 47 45 43 42 40 39 39 39 39 39 39 39 38
43 44 46 47 48 48 48 48 49 49 49 50 51 51 53 53 53 53 53 53 54 55 57 58 58 58 57 55 53 51 50 49 48 47 45 44 42 41 41 41 41 40
45 45 47 48 49 49 49 49 48 48 48 49 49 51 54 56 57 57 58 57 57 57 58 59 59 59 60 60 58 56 55 53 53 53 52 51 48 45 44 43 42 41
47 47 48 50 50 49 49 49 48 49 50 50 49 51 54 55 57 59 60 60 61 60 60 61 61 60 60 61 62 61 59 56 55 56 56 56 55 52 49 47 45 43
48 48 50 51 50 49 49 50 50 51 52 51 50 52 54 55 56 57 58 60 62 63 63 63 64 63 62 62 63 63 62 60 57 57 58 59 59 59 56 53 50 47
49 49 50 50 50 49 49 51 52 53 53 52 51 52 55 56 56 56 58 59 60 62 63 64 66 67 65 64 64 64 64 63 59 56 56 57 59 61 61 59 56 53
49 50 50 49 50 50 51 52 54 55 55 54 53 53 55 56 56 55 57 58 59 60 61 63 66 69 69 68 67 66 66 64 60 57 57 58 60 61 62 62 60 58
50 50 50 50 50 52 53 53 54 54 54 53 52 52 53 54 55 54 56 58 59 59 61 62 64 67 69 69 68 68 67 65 62 59 59 61 62 61 61 61 61 60
Wind_Direction
8 5 4 6 8 8 8 6 4 3 1 0 359 357 352 344 334 322 313 312 313 312 308 301 294 289 284 280 278 277 275 271 265 260 257 255 254 253 252 250 248 247
6 3 360 358 359 359 359 360 359 358 358 357 356 356 355 353 349 340 329 320 316 315 312 304 296 289 284 281 279 277 277 275 272 267 261 258 256 255 254 252 250 248
4 360 356 354 354 354 354 354 355 354 353 352 350 350 350 351 351 349 344 336 329 324 319 311 302 294 287 282 279 277 278 277 276 274 268 263 260 258 257 255 253 250
4 360 357 354 352 350 348 348 348 348 349 348 347 346 345 345 345 346 346 344 341 337 333 325 315 305 295 287 282 278 277 277 278 278 274 269 265 262 260 257 256 254
8 3 360 355 352 348 343 340 339 340 342 342 342 342 341 341 339 338 338 339 339 339 338 336 330 321 310 298 289 283 280 278 277 277 276 274 270 267 264 261 259 257
5 2 1 359 356 352 345 339 335 332 331 331 333 334 333 334 334 333 332 332 332 333 332 332 331 329 323 315 305 295 289 284 280 277 275 275 274 271 269 266 263 261
358 358 358 358 357 355 353 349 342 336 330 326 325 325 324 325 326 326 327 326 327 327 327 327 325 324 322 319 314 308 302 294 288 283 278 277 276 273 270 269 268 266
353 352 352 352 353 353 353 352 350 347 343 337 332 328 326 325 323 322 321 321 321 321 321 322 322 322 320 317 313 310 306 300 294 289 284 281 278 275 272 271 270 269
348 347 345 345 344 344 345 346 345 344 343 340 339 335 333 331 328 327 324 322 320 319 317 316 316 317 318 316 314 309 305 300 296 292 288 285 281 278 275 273 271 270
340 339 339 338 337 337 337 337 337 336 335 334 334 333 332 331 329 328 327 324 323 321 319 317 315 312 311 311 312 310 307 302 297 292 289 287 285 283 279 275 272 271
328 328 328 328 328 327 327 328 329 329 328 327 327 327 327 328 327 325 323 322 322 322 321 320 319 315 311 308 307 307 306 303 299 294 290 288 287 286 283 279 275 273
318 318 318 319 320 320 319 319 319 320 321 321 321 320 320 321 321 321 320 318 316 316 317 317 317 317 314 311 308 304 302 301 300 297 295 291 288 286 283 281 278 276
315 314 314 314 315 315 314 314 314 314 314 315 316 315 315 315 314 314 314 313 312 311 310 310 310 310 311 311 309 306 303 300 299 298 297 295 292 289 285 282 279 277
315 314 314 313 311 311 310 310 309 309 309 310 310 310 310 310 310 309 308 308 307 307 306 305 304 303 305 307 307 307 305 303 301 298 297 295 294 293 290 286 283 280
317 317 316 314 312 310 309 308 307 307 307 307 307 307 306 306 305 305 305 304 303 303 302 301 301 300 301 302 303 304 304 303 302 300 298 297 295 293 292 290 289 286
318 317 316 315 314 312 311 309 307 306 305 304 304 304 304 304 303 302 301 301 301 300 299 298 298 297 297 297 298 300 301 301 300 299 298 297 296 294 293 291 291 290
319 318 318 317 316 315 314 312 310 308 305 303 302 301 301 301 300 299 298 299 299 298 298 297 296 295 295 295 295 295 297 297 296 296 295 294 294 293 293 292 292 291
318 318 317 316 316 315 314 313 311 309 307 305 303 301 299 298 296 296 295 296 296 296 296 295 295 294 293 294 293 293 293 293 292 292 291 291 291 290 290 291 291 291
317 316 315 314 314 312 311 310 309 307 306 305 303 301 299 297 295 293 293 293 293 293 293 293 293 292 291 292 291 291 291 291 290 289 288 287 287 287 287 288 288 289
315 314 312 311 310 309 308 306 305 304 302 301 300 299 297 296 294 292 291 290 289 289 290 290 290 289 290 290 290 289 289 289 289 288 286 285 284 283 284 285 285 286
312 311 308 307 307 306 304 303 301 299 298 297 296 295 294 294 293 292 291 290 288 286 285 285 285 286 287 288 288 288 287 286 287 287 286 285 283 282 281 282 283 283
309 307 305 304 304 303 302 300 298 296 295 295 293 292 292 291 291 292 292 291 290 288 285 283 282 281 282 283 284 285 285 284 283 283 283 283 283 282 281 280 280 281
307 305 305 304 304 303 300 298 296 294 294 293 292 290 290 289 289 289 289 289 289 288 287 285 283 280 278 278 279 280 281 281 280 279 279 279 280 281 281 280 279 278
308 307 307 306 304 301 298 296 295 294 293 292 291 290 289 288 288 287 286 286 285 285 285 284 283 282 279 278 277 277 279 280 279 277 276 275 275 277 278 278 277 277
310 309 307 304 302 300 298 296 295 294 294 293 292 290 290 289 288 287 286 284 283 282 282 282 282 282 280 279 278 277 277 278 278 276 275 273 273 273 274 275 275 275
310 308 306 305 303 301 300 299 298 298 298 297 296 294 292 291 290 288 286 285 284 283 282 281 281 281 281 280 280 278 277 277 277 276 275 274 273 272 271 271 271 272